DAL788 KORD-KFLL

Flight info

Callsign DAL788
Flight time 2h 47m
Altitude 37000
Route DENNT DARCY DREGS DUMGE SCOTO SWAPP/N0449F390 Q79 ZPLEN TEEKY4
Aircraft A320/M-SDE3FGHIRWY/LB1

Departure

Time 2026-05-06 23:41
Airport Chicago O'Hare International Airport (KORD)

Arrival

Time 2026-05-07 02:29
Airport Fort Lauderdale Hollywood International Airport (KFLL)
Time Latitude Longitude Altitude Speed Heading
2026-05-06 23:19 41.97837 -87.90760 671 ft 0 kts 101°
2026-05-06 23:31 41.97838 -87.90773 671 ft 4 kts 104°
2026-05-06 23:32 41.97848 -87.90805 669 ft 4 kts 130°
2026-05-06 23:32 41.97867 -87.90823 669 ft 4 kts 184°
2026-05-06 23:32 41.97876 -87.90822 669 ft 0 kts 189°
2026-05-06 23:34 41.97853 -87.90827 667 ft 11 kts 189°
2026-05-06 23:34 41.97773 -87.90845 671 ft 11 kts 189°
2026-05-06 23:34 41.97703 -87.90861 671 ft 10 kts 189°
2026-05-06 23:35 41.97642 -87.90874 671 ft 8 kts 189°
2026-05-06 23:35 41.97587 -87.90886 671 ft 10 kts 193°
2026-05-06 23:35 41.97543 -87.90972 671 ft 12 kts 246°
2026-05-06 23:35 41.97489 -87.91061 671 ft 12 kts 197°
2026-05-06 23:36 41.97395 -87.91135 670 ft 19 kts 221°
2026-05-06 23:36 41.97351 -87.91172 671 ft 9 kts 189°
2026-05-06 23:36 41.97272 -87.91111 671 ft 18 kts 142°
2026-05-06 23:36 41.97173 -87.90991 670 ft 15 kts 136°
2026-05-06 23:37 41.97073 -87.90876 670 ft 23 kts 137°
2026-05-06 23:37 41.97041 -87.90632 670 ft 31 kts 90°
2026-05-06 23:37 41.97045 -87.90302 670 ft 39 kts 89°
2026-05-06 23:37 41.97045 -87.89991 670 ft 35 kts 91°
2026-05-06 23:38 41.97044 -87.89685 671 ft 27 kts 89°
2026-05-06 23:38 41.97046 -87.89426 670 ft 29 kts 90°
2026-05-06 23:38 41.97047 -87.89115 669 ft 37 kts 90°
2026-05-06 23:38 41.97045 -87.88810 668 ft 33 kts 90°
2026-05-06 23:39 41.97043 -87.88515 668 ft 26 kts 90°
2026-05-06 23:39 41.97044 -87.88311 669 ft 15 kts 89°
2026-05-06 23:39 41.97047 -87.88153 670 ft 12 kts 88°
2026-05-06 23:39 41.97016 -87.88040 670 ft 7 kts 151°
2026-05-06 23:40 41.96941 -87.88044 670 ft 15 kts 207°
2026-05-06 23:40 41.96909 -87.88077 668 ft 0 kts 220°
2026-05-06 23:40 41.96867 -87.88125 669 ft 36 kts 221°
2026-05-06 23:40 41.96483 -87.88580 670 ft 107 kts 221°
2026-05-06 23:41 41.95805 -87.89403 761 ft 148 kts 226°
2026-05-06 23:41 41.95009 -87.90349 1359 ft 155 kts 225°
2026-05-06 23:41 41.94191 -87.91325 2020 ft 163 kts 228°
2026-05-06 23:41 41.93337 -87.92386 2680 ft 171 kts 230°
2026-05-06 23:42 41.92462 -87.93537 3206 ft 184 kts 230°
2026-05-06 23:42 41.91448 -87.94746 3602 ft 211 kts 214°
2026-05-06 23:42 41.89906 -87.95118 3982 ft 248 kts 177°
2026-05-06 23:42 41.88138 -87.94536 4537 ft 271 kts 165°
2026-05-06 23:43 41.86355 -87.93602 5415 ft 278 kts 160°
2026-05-06 23:43 41.84559 -87.92576 6370 ft 282 kts 160°
2026-05-06 23:43 41.82738 -87.91562 7275 ft 286 kts 161°
2026-05-06 23:43 41.80876 -87.90583 8199 ft 288 kts 163°
2026-05-06 23:44 41.78986 -87.89640 9112 ft 292 kts 164°
2026-05-06 23:44 41.77061 -87.88716 10014 ft 295 kts 165°
2026-05-06 23:44 41.75072 -87.87786 10468 ft 314 kts 166°
2026-05-06 23:44 41.72931 -87.86806 10833 ft 334 kts 166°
2026-05-06 23:45 41.70710 -87.85786 11539 ft 341 kts 167°
2026-05-06 23:45 41.68447 -87.84735 12315 ft 346 kts 167°
2026-05-06 23:45 41.66186 -87.83684 13091 ft 350 kts 168°
2026-05-06 23:45 41.63869 -87.82608 13871 ft 355 kts 169°
2026-05-06 23:46 41.61527 -87.81523 14557 ft 358 kts 169°
2026-05-06 23:46 41.59165 -87.80430 15261 ft 361 kts 170°
2026-05-06 23:46 41.56785 -87.79330 15978 ft 364 kts 170°
2026-05-06 23:46 41.54384 -87.78220 16694 ft 367 kts 171°
2026-05-06 23:47 41.51960 -87.77101 17353 ft 370 kts 171°
2026-05-06 23:47 41.49516 -87.75976 18042 ft 373 kts 171°
2026-05-06 23:47 41.47050 -87.74846 18657 ft 376 kts 172°
2026-05-06 23:47 41.44563 -87.73708 19236 ft 379 kts 172°
2026-05-06 23:48 41.42040 -87.72802 19819 ft 371 kts 181°
2026-05-06 23:48 41.39497 -87.72486 20426 ft 362 kts 191°
2026-05-06 23:48 41.36975 -87.72506 21044 ft 364 kts 191°
2026-05-06 23:48 41.34439 -87.72528 21666 ft 367 kts 191°
2026-05-06 23:49 41.31873 -87.72546 22203 ft 370 kts 191°
2026-05-06 23:49 41.29275 -87.72563 22673 ft 376 kts 191°
2026-05-06 23:49 41.26644 -87.72579 23202 ft 380 kts 191°
2026-05-06 23:49 41.23985 -87.72590 23720 ft 384 kts 191°
2026-05-06 23:50 41.21307 -87.72600 24193 ft 385 kts 191°
2026-05-06 23:50 41.15861 -87.72014 25166 ft 395 kts 187°
2026-05-06 23:50 41.13122 -87.71632 25652 ft 396 kts 187°
2026-05-06 23:51 41.10377 -87.71249 26097 ft 397 kts 188°
2026-05-06 23:51 41.07630 -87.70873 26547 ft 396 kts 189°
2026-05-06 23:51 41.04900 -87.70503 27105 ft 394 kts 190°
2026-05-06 23:51 41.02167 -87.70141 27544 ft 395 kts 190°
2026-05-06 23:52 40.99468 -87.69783 27988 ft 396 kts 191°
2026-05-06 23:52 40.96721 -87.69417 28443 ft 396 kts 191°
2026-05-06 23:52 40.93973 -87.69051 28883 ft 397 kts 192°
2026-05-06 23:52 40.91216 -87.68682 29315 ft 398 kts 192°
2026-05-06 23:53 40.88461 -87.68312 29670 ft 398 kts 193°
2026-05-06 23:53 40.85704 -87.67941 30077 ft 398 kts 193°
2026-05-06 23:53 40.82946 -87.67570 30406 ft 399 kts 193°
2026-05-06 23:53 40.80175 -87.67200 30698 ft 400 kts 193°
2026-05-06 23:54 40.77393 -87.66830 30969 ft 402 kts 193°
2026-05-06 23:54 40.74645 -87.66465 31220 ft 403 kts 194°
2026-05-06 23:54 40.71845 -87.66093 31465 ft 405 kts 193°
2026-05-06 23:54 40.69030 -87.65716 31737 ft 406 kts 194°
2026-05-06 23:55 40.66224 -87.65336 32082 ft 405 kts 194°
2026-05-06 23:55 40.63426 -87.64959 32430 ft 404 kts 194°
2026-05-06 23:55 40.60631 -87.64585 32777 ft 403 kts 194°
2026-05-06 23:55 40.57847 -87.64212 33117 ft 402 kts 194°
2026-05-06 23:56 40.55068 -87.63842 33459 ft 401 kts 194°
2026-05-06 23:56 40.52295 -87.63473 33809 ft 400 kts 194°
2026-05-06 23:56 40.49528 -87.63104 34140 ft 399 kts 194°
2026-05-06 23:56 40.46760 -87.62737 34408 ft 399 kts 194°
2026-05-06 23:57 40.43993 -87.62374 34591 ft 399 kts 195°
2026-05-06 23:57 40.42161 -87.62136 34792 ft 399 kts 195°
2026-05-06 23:57 40.39403 -87.61778 35049 ft 398 kts 194°
2026-05-06 23:57 40.36643 -87.61418 35276 ft 399 kts 194°
2026-05-06 23:58 40.33867 -87.61034 35489 ft 406 kts 191°
2026-05-06 23:58 40.31029 -87.60185 35692 ft 433 kts 181°
2026-05-06 23:58 40.28165 -87.58597 35892 ft 456 kts 173°
2026-05-06 23:58 40.25311 -87.56766 36091 ft 458 kts 173°
2026-05-06 23:59 40.22453 -87.54924 36241 ft 458 kts 173°
2026-05-06 23:59 40.19588 -87.53080 36457 ft 458 kts 173°
2026-05-06 23:59 40.16764 -87.51274 36660 ft 457 kts 173°
2026-05-06 23:59 40.13899 -87.49458 36854 ft 457 kts 173°
2026-05-07 00:00 40.11034 -87.47651 37035 ft 458 kts 173°
2026-05-07 00:00 40.08169 -87.45848 37056 ft 457 kts 173°
2026-05-07 00:00 40.02453 -87.42249 37057 ft 455 kts 173°
2026-05-07 00:01 39.96754 -87.38640 37063 ft 457 kts 173°
2026-05-07 00:01 39.91073 -87.34845 37051 ft 460 kts 172°
2026-05-07 00:02 39.85404 -87.30955 37031 ft 460 kts 172°
2026-05-07 00:02 39.79775 -87.27141 37046 ft 459 kts 172°
2026-05-07 00:03 39.74098 -87.23350 37036 ft 459 kts 173°
2026-05-07 00:03 39.68407 -87.19564 37048 ft 459 kts 173°
2026-05-07 00:04 39.62725 -87.15781 37055 ft 459 kts 173°
2026-05-07 00:04 39.57041 -87.12000 37057 ft 459 kts 173°
2026-05-07 00:05 39.51359 -87.08215 37042 ft 459 kts 173°
2026-05-07 00:05 39.45676 -87.04440 37063 ft 459 kts 173°
2026-05-07 00:06 39.39998 -87.00681 37066 ft 458 kts 173°
2026-05-07 00:06 39.34322 -86.96937 37058 ft 457 kts 173°
2026-05-07 00:07 39.28681 -86.93216 37025 ft 457 kts 173°
2026-05-07 00:07 39.23001 -86.89480 37037 ft 459 kts 173°
2026-05-07 00:08 39.17310 -86.85738 37041 ft 458 kts 173°
2026-05-07 00:08 39.11632 -86.81944 37044 ft 460 kts 172°
2026-05-07 00:09 39.06009 -86.78088 36999 ft 461 kts 172°
2026-05-07 00:09 39.00353 -86.74207 37021 ft 460 kts 172°
2026-05-07 00:10 38.94700 -86.70373 37025 ft 459 kts 173°
2026-05-07 00:10 38.89049 -86.66575 37035 ft 459 kts 173°
2026-05-07 00:11 38.83397 -86.62778 36977 ft 458 kts 173°
2026-05-07 00:11 38.77732 -86.58978 37045 ft 460 kts 173°
2026-05-07 00:12 38.75229 -86.57296 37048 ft 460 kts 172°
2026-05-07 00:12 38.69561 -86.53478 37034 ft 460 kts 173°
2026-05-07 00:13 38.66428 -86.51370 37035 ft 460 kts 172°
2026-05-07 00:13 38.60756 -86.47561 37035 ft 460 kts 173°
2026-05-07 00:14 38.55080 -86.43773 37042 ft 461 kts 172°
2026-05-07 00:14 38.49391 -86.39983 37052 ft 461 kts 172°
2026-05-07 00:15 38.43708 -86.36195 37050 ft 461 kts 172°
2026-05-07 00:15 38.37994 -86.32397 37044 ft 460 kts 172°
2026-05-07 00:16 38.32351 -86.28662 37042 ft 460 kts 173°
2026-05-07 00:16 38.26674 -86.24906 37038 ft 460 kts 172°
2026-05-07 00:17 38.20993 -86.21136 37043 ft 460 kts 172°
2026-05-07 00:17 38.15317 -86.17388 37016 ft 460 kts 172°
2026-05-07 00:18 38.09633 -86.13651 37011 ft 461 kts 172°
2026-05-07 00:18 38.03917 -86.09900 37024 ft 462 kts 172°
2026-05-07 00:19 37.98194 -86.06135 37032 ft 462 kts 172°
2026-05-07 00:19 37.92520 -86.02410 37019 ft 462 kts 172°
2026-05-07 00:20 37.86811 -85.98678 36996 ft 462 kts 171°
2026-05-07 00:20 37.81076 -85.94945 37013 ft 464 kts 171°
2026-05-07 00:21 37.75320 -85.91191 37034 ft 464 kts 171°
2026-05-07 00:21 37.69565 -85.87438 37040 ft 465 kts 171°
2026-05-07 00:22 37.63814 -85.83703 36990 ft 464 kts 171°
2026-05-07 00:22 37.58107 -85.80006 37003 ft 465 kts 171°
2026-05-07 00:23 37.52345 -85.76278 37009 ft 465 kts 171°
2026-05-07 00:23 37.46578 -85.72544 37009 ft 466 kts 171°
2026-05-07 00:24 37.40813 -85.68821 37013 ft 466 kts 171°
2026-05-07 00:24 37.35019 -85.65092 37036 ft 469 kts 171°
2026-05-07 00:25 37.29207 -85.61361 37035 ft 469 kts 171°
2026-05-07 00:25 37.23396 -85.57631 37043 ft 468 kts 171°
2026-05-07 00:26 37.17636 -85.53939 37046 ft 468 kts 171°
2026-05-07 00:26 37.11840 -85.50232 37003 ft 467 kts 171°
2026-05-07 00:27 37.06040 -85.46529 37026 ft 467 kts 171°
2026-05-07 00:27 37.00259 -85.42830 37033 ft 466 kts 171°
2026-05-07 00:28 36.94481 -85.39144 37013 ft 466 kts 171°
2026-05-07 00:28 36.88698 -85.35483 36991 ft 465 kts 171°
2026-05-07 00:29 36.82948 -85.31853 37033 ft 467 kts 171°
2026-05-07 00:30 36.71371 -85.24523 37042 ft 467 kts 171°
2026-05-07 00:30 36.65577 -85.20864 37042 ft 466 kts 171°
2026-05-07 00:31 36.59746 -85.17824 36998 ft 437 kts 183°
2026-05-07 00:31 36.53906 -85.16278 37010 ft 428 kts 186°
2026-05-07 00:32 36.48067 -85.14781 37018 ft 429 kts 186°
2026-05-07 00:32 36.42253 -85.13275 37018 ft 429 kts 185°
2026-05-07 00:33 36.36412 -85.11758 36986 ft 429 kts 185°
2026-05-07 00:33 36.30557 -85.10249 36993 ft 429 kts 185°
2026-05-07 00:34 36.24713 -85.08736 37015 ft 428 kts 185°
2026-05-07 00:34 36.18879 -85.07238 37027 ft 428 kts 185°
2026-05-07 00:35 36.13073 -85.05745 36999 ft 428 kts 185°
2026-05-07 00:35 36.07231 -85.04255 37000 ft 429 kts 185°
2026-05-07 00:36 36.01373 -85.02761 37023 ft 430 kts 185°
2026-05-07 00:36 35.95510 -85.01257 36996 ft 431 kts 185°
2026-05-07 00:37 35.89643 -84.99749 37005 ft 431 kts 185°
2026-05-07 00:37 35.83776 -84.98253 36979 ft 431 kts 185°
2026-05-07 00:38 35.77898 -84.96757 36970 ft 430 kts 185°
2026-05-07 00:38 35.72038 -84.95276 36963 ft 430 kts 185°
2026-05-07 00:39 35.66163 -84.93789 36966 ft 431 kts 185°
2026-05-07 00:39 35.60288 -84.92303 36931 ft 432 kts 185°
2026-05-07 00:40 35.54437 -84.90808 36947 ft 432 kts 184°
2026-05-07 00:40 35.48552 -84.89308 36962 ft 432 kts 185°
2026-05-07 00:41 35.42659 -84.87824 36981 ft 432 kts 185°
2026-05-07 00:41 35.36757 -84.86331 36957 ft 433 kts 184°
2026-05-07 00:42 35.30853 -84.84843 36992 ft 433 kts 184°
2026-05-07 00:42 35.24941 -84.83356 37001 ft 434 kts 184°
2026-05-07 00:43 35.19015 -84.81874 37008 ft 434 kts 185°
2026-05-07 00:43 35.13090 -84.80391 36907 ft 435 kts 184°
2026-05-07 00:44 35.07152 -84.78900 36918 ft 435 kts 184°
2026-05-07 00:44 35.01210 -84.77409 36943 ft 436 kts 184°
2026-05-07 00:45 34.95270 -84.75924 36969 ft 436 kts 184°
2026-05-07 00:45 34.89362 -84.74447 36990 ft 436 kts 184°
2026-05-07 00:46 34.86388 -84.73710 37796 ft 436 kts 183°
2026-05-07 00:46 34.83407 -84.72977 36895 ft 439 kts 182°
2026-05-07 00:46 34.77387 -84.71490 36905 ft 442 kts 182°
2026-05-07 00:47 34.71391 -84.69996 36908 ft 442 kts 183°
2026-05-07 00:47 34.65365 -84.68491 36913 ft 444 kts 182°
2026-05-07 00:48 34.59299 -84.66987 36870 ft 446 kts 181°
2026-05-07 00:48 34.53184 -84.65456 36855 ft 451 kts 180°
2026-05-07 00:49 34.47037 -84.63837 36851 ft 452 kts 180°
2026-05-07 00:49 34.41919 -84.62476 36876 ft 452 kts 180°
2026-05-07 00:50 34.35765 -84.60856 36860 ft 452 kts 180°
2026-05-07 00:50 34.29590 -84.59250 36855 ft 455 kts 180°
2026-05-07 00:51 34.23392 -84.57638 36852 ft 456 kts 180°
2026-05-07 00:51 34.17185 -84.56029 36847 ft 456 kts 180°
2026-05-07 00:52 34.11015 -84.54425 36858 ft 456 kts 180°
2026-05-07 00:52 34.04790 -84.52817 36823 ft 460 kts 180°
2026-05-07 00:53 33.98519 -84.51271 36791 ft 458 kts 182°
2026-05-07 00:53 33.92256 -84.49912 36790 ft 457 kts 183°
2026-05-07 00:54 33.85995 -84.48593 36787 ft 457 kts 182°
2026-05-07 00:54 33.82862 -84.47916 36942 ft 457 kts 182°
2026-05-07 00:54 33.79728 -84.47230 37022 ft 459 kts 182°
2026-05-07 00:55 33.73448 -84.45836 37027 ft 459 kts 182°
2026-05-07 00:55 33.67161 -84.44449 37026 ft 459 kts 182°
2026-05-07 00:56 33.60889 -84.42712 37028 ft 473 kts 173°
2026-05-07 00:56 33.54635 -84.40188 37003 ft 474 kts 173°
2026-05-07 00:57 33.48370 -84.37671 37008 ft 476 kts 173°
2026-05-07 00:57 33.42081 -84.35141 37053 ft 477 kts 173°
2026-05-07 00:58 33.35785 -84.32616 37057 ft 477 kts 173°
2026-05-07 00:58 33.29482 -84.30101 37071 ft 478 kts 173°
2026-05-07 00:59 33.20051 -84.26348 37058 ft 478 kts 173°
2026-05-07 01:00 33.13727 -84.23830 37046 ft 479 kts 173°
2026-05-07 01:00 33.07405 -84.21309 37033 ft 479 kts 173°
2026-05-07 01:01 33.01074 -84.18796 37049 ft 479 kts 173°
2026-05-07 01:01 32.94747 -84.16289 37065 ft 479 kts 173°
2026-05-07 01:02 32.88413 -84.13786 37066 ft 479 kts 173°
2026-05-07 01:02 32.82083 -84.11280 37063 ft 480 kts 173°
2026-05-07 01:03 32.75744 -84.08774 37054 ft 480 kts 173°
2026-05-07 01:03 32.69445 -84.06291 37010 ft 480 kts 172°
2026-05-07 01:04 32.63099 -84.03792 37029 ft 481 kts 172°
2026-05-07 01:04 32.56745 -84.01304 37051 ft 481 kts 173°
2026-05-07 01:05 32.50386 -83.98815 37052 ft 481 kts 172°
2026-05-07 01:05 32.44028 -83.96321 37037 ft 481 kts 172°
2026-05-07 01:06 32.37662 -83.93834 37048 ft 481 kts 172°
2026-05-07 01:06 32.31289 -83.91346 37041 ft 481 kts 172°
2026-05-07 01:07 32.24925 -83.88868 37052 ft 482 kts 172°
2026-05-07 01:07 32.18587 -83.86398 37010 ft 482 kts 172°
2026-05-07 01:08 32.12211 -83.83919 37035 ft 482 kts 172°
2026-05-07 01:08 32.05842 -83.81447 37048 ft 482 kts 172°
2026-05-07 01:09 31.99476 -83.78974 37062 ft 482 kts 172°
2026-05-07 01:09 31.93113 -83.76508 37064 ft 481 kts 172°
2026-05-07 01:10 31.86751 -83.74060 37051 ft 481 kts 172°
2026-05-07 01:10 31.80395 -83.71611 37066 ft 481 kts 172°
2026-05-07 01:11 31.74029 -83.69151 37066 ft 481 kts 172°
2026-05-07 01:11 31.67716 -83.66713 37072 ft 480 kts 172°
2026-05-07 01:12 31.61327 -83.64265 37049 ft 480 kts 172°
2026-05-07 01:12 31.54977 -83.61830 37066 ft 480 kts 172°
2026-05-07 01:13 31.48638 -83.59396 37073 ft 479 kts 172°
2026-05-07 01:13 31.42338 -83.56986 37076 ft 479 kts 172°
2026-05-07 01:14 31.35996 -83.54566 37060 ft 479 kts 172°
2026-05-07 01:14 31.29665 -83.52148 37059 ft 479 kts 171°
2026-05-07 01:15 31.23331 -83.49736 37061 ft 479 kts 171°
2026-05-07 01:15 31.16987 -83.47324 37068 ft 479 kts 171°
2026-05-07 01:16 31.10643 -83.44913 37070 ft 479 kts 171°
2026-05-07 01:16 31.04300 -83.42499 37043 ft 479 kts 171°
2026-05-07 01:17 30.97970 -83.40099 37057 ft 479 kts 171°
2026-05-07 01:17 30.91671 -83.37725 37068 ft 479 kts 171°
2026-05-07 01:18 30.85336 -83.35341 37078 ft 479 kts 171°
2026-05-07 01:18 30.79001 -83.32950 37073 ft 479 kts 171°
2026-05-07 01:19 30.72670 -83.30558 37068 ft 478 kts 171°
2026-05-07 01:19 30.66476 -83.27492 37073 ft 486 kts 163°
2026-05-07 01:20 30.60339 -83.24176 37080 ft 486 kts 163°
2026-05-07 01:20 30.54194 -83.20865 37083 ft 486 kts 163°
2026-05-07 01:21 30.48053 -83.17574 37090 ft 486 kts 163°
2026-05-07 01:21 30.41914 -83.14275 37089 ft 487 kts 163°
2026-05-07 01:22 30.35805 -83.10993 37083 ft 487 kts 163°
2026-05-07 01:22 30.29650 -83.07698 37082 ft 487 kts 163°
2026-05-07 01:23 30.23491 -83.04408 37082 ft 488 kts 163°
2026-05-07 01:23 30.17331 -83.01126 37061 ft 488 kts 163°
2026-05-07 01:24 30.11163 -82.97836 37070 ft 488 kts 163°
2026-05-07 01:24 30.05036 -82.94577 37076 ft 488 kts 163°
2026-05-07 01:25 29.98873 -82.91295 37079 ft 488 kts 163°
2026-05-07 01:25 29.92706 -82.88028 37082 ft 488 kts 163°
2026-05-07 01:26 29.86539 -82.84767 37064 ft 487 kts 162°
2026-05-07 01:26 29.80376 -82.81512 37073 ft 487 kts 162°
2026-05-07 01:27 29.74222 -82.78266 37076 ft 487 kts 162°
2026-05-07 01:27 29.68061 -82.75013 37069 ft 487 kts 162°
2026-05-07 01:28 29.61888 -82.71761 37047 ft 488 kts 162°
2026-05-07 01:28 29.55713 -82.68514 37058 ft 488 kts 162°
2026-05-07 01:29 29.49532 -82.65256 37065 ft 488 kts 162°
2026-05-07 01:29 29.43352 -82.62009 37070 ft 488 kts 162°
2026-05-07 01:30 29.37170 -82.58775 37074 ft 488 kts 162°
2026-05-07 01:30 29.30988 -82.55535 37054 ft 488 kts 161°
2026-05-07 01:31 29.24632 -82.53140 37063 ft 473 kts 178°
2026-05-07 01:31 29.18209 -82.52726 37074 ft 462 kts 188°
2026-05-07 01:32 29.11780 -82.52730 37078 ft 462 kts 188°
2026-05-07 01:32 29.05346 -82.52728 37090 ft 462 kts 188°
2026-05-07 01:33 28.98902 -82.52726 37088 ft 463 kts 188°
2026-05-07 01:33 28.92461 -82.52723 37095 ft 463 kts 188°
2026-05-07 01:34 28.86018 -82.52717 37098 ft 463 kts 188°
2026-05-07 01:34 28.79571 -82.52704 37074 ft 463 kts 187°
2026-05-07 01:35 28.73129 -82.52698 37050 ft 463 kts 187°
2026-05-07 01:35 28.66688 -82.52697 37059 ft 463 kts 187°
2026-05-07 01:36 28.60287 -82.52702 37062 ft 463 kts 187°
2026-05-07 01:36 28.53849 -82.52699 37060 ft 463 kts 187°
2026-05-07 01:37 28.47403 -82.52692 37063 ft 463 kts 187°
2026-05-07 01:37 28.40959 -82.52681 37050 ft 463 kts 187°
2026-05-07 01:38 28.34511 -82.52682 37057 ft 463 kts 187°
2026-05-07 01:38 28.29146 -82.52678 37061 ft 464 kts 187°
2026-05-07 01:39 28.22696 -82.52675 37062 ft 464 kts 187°
2026-05-07 01:39 28.16243 -82.52677 37052 ft 464 kts 186°
2026-05-07 01:40 28.09783 -82.52680 37065 ft 464 kts 187°
2026-05-07 01:40 28.03327 -82.52679 37071 ft 464 kts 186°
2026-05-07 01:41 27.96863 -82.51589 37079 ft 479 kts 168°
2026-05-07 01:41 27.90507 -82.49317 37078 ft 479 kts 168°
2026-05-07 01:42 27.84144 -82.47061 37072 ft 479 kts 168°
2026-05-07 01:42 27.77788 -82.44813 37065 ft 478 kts 168°
2026-05-07 01:43 27.71486 -82.42586 37072 ft 478 kts 168°
2026-05-07 01:43 27.65138 -82.40338 37080 ft 478 kts 168°
2026-05-07 01:44 27.58790 -82.38093 37065 ft 477 kts 168°
2026-05-07 01:44 27.52449 -82.35858 37057 ft 478 kts 168°
2026-05-07 01:45 27.46107 -82.33621 37057 ft 478 kts 168°
2026-05-07 01:45 27.39750 -82.31377 37058 ft 478 kts 166°
2026-05-07 01:46 27.33695 -82.28111 37055 ft 486 kts 155°
2026-05-07 01:46 27.30732 -82.26227 36896 ft 495 kts 155°
2026-05-07 01:46 27.27709 -82.24307 36646 ft 502 kts 154°
2026-05-07 01:46 27.24700 -82.22395 36385 ft 502 kts 154°
2026-05-07 01:47 27.21624 -82.20443 36137 ft 501 kts 154°
2026-05-07 01:47 27.18631 -82.18547 35879 ft 499 kts 154°
2026-05-07 01:47 27.15576 -82.16613 35279 ft 496 kts 155°
2026-05-07 01:47 27.12609 -82.14735 34651 ft 495 kts 154°
2026-05-07 01:48 27.09617 -82.12839 33991 ft 493 kts 154°
2026-05-07 01:48 27.06628 -82.10946 33311 ft 491 kts 154°
2026-05-07 01:48 27.03665 -82.09070 32680 ft 487 kts 154°
2026-05-07 01:48 27.00722 -82.07215 32044 ft 484 kts 154°
2026-05-07 01:49 26.97805 -82.05330 31413 ft 483 kts 150°
2026-05-07 01:49 26.95129 -82.03037 30804 ft 484 kts 140°
2026-05-07 01:49 26.92781 -82.00343 30269 ft 481 kts 135°
2026-05-07 01:49 26.90493 -81.97620 29661 ft 477 kts 135°
2026-05-07 01:50 26.88223 -81.94931 29118 ft 471 kts 135°
2026-05-07 01:50 26.85979 -81.92280 28574 ft 466 kts 135°
2026-05-07 01:50 26.83759 -81.89662 28040 ft 462 kts 135°
2026-05-07 01:50 26.81553 -81.87065 27510 ft 457 kts 135°
2026-05-07 01:51 26.79397 -81.84528 26996 ft 453 kts 135°
2026-05-07 01:51 26.77231 -81.81982 26480 ft 450 kts 135°
2026-05-07 01:51 26.75089 -81.79469 26148 ft 442 kts 135°
2026-05-07 01:51 26.72977 -81.77006 25738 ft 437 kts 135°
2026-05-07 01:52 26.70876 -81.74569 25267 ft 434 kts 135°
2026-05-07 01:52 26.68785 -81.72146 24820 ft 431 kts 135°
2026-05-07 01:52 26.66715 -81.69744 24358 ft 428 kts 135°
2026-05-07 01:52 26.64657 -81.67358 23918 ft 425 kts 135°
2026-05-07 01:53 26.62676 -81.64923 23448 ft 423 kts 128°
2026-05-07 01:53 26.60911 -81.62303 22953 ft 419 kts 127°
2026-05-07 01:53 26.59178 -81.59716 22514 ft 414 kts 127°
2026-05-07 01:53 26.57456 -81.57149 22081 ft 410 kts 127°
2026-05-07 01:54 26.55754 -81.54614 21649 ft 406 kts 127°
2026-05-07 01:54 26.54068 -81.52107 21229 ft 402 kts 126°
2026-05-07 01:54 26.52395 -81.49622 20811 ft 398 kts 126°
2026-05-07 01:54 26.50737 -81.47164 20405 ft 393 kts 126°
2026-05-07 01:55 26.49098 -81.44737 20009 ft 389 kts 126°
2026-05-07 01:55 26.47475 -81.42335 19613 ft 386 kts 126°
2026-05-07 01:55 26.45888 -81.39986 19231 ft 382 kts 126°
2026-05-07 01:55 26.44298 -81.37630 18867 ft 378 kts 126°
2026-05-07 01:56 26.42718 -81.35296 18496 ft 375 kts 126°
2026-05-07 01:56 26.41152 -81.32983 18091 ft 371 kts 126°
2026-05-07 01:56 26.39563 -81.30737 17667 ft 368 kts 128°
2026-05-07 01:56 26.37931 -81.28538 17252 ft 365 kts 129°
2026-05-07 01:57 26.36297 -81.26389 16829 ft 363 kts 129°
2026-05-07 01:57 26.34666 -81.24256 16429 ft 360 kts 129°
2026-05-07 01:57 26.33048 -81.22131 16035 ft 357 kts 128°
2026-05-07 01:57 26.31452 -81.20020 15650 ft 355 kts 128°
2026-05-07 01:58 26.29873 -81.17922 15268 ft 352 kts 128°
2026-05-07 01:58 26.28313 -81.15843 14898 ft 349 kts 127°
2026-05-07 01:58 26.26757 -81.13781 14540 ft 346 kts 127°
2026-05-07 01:58 26.25207 -81.11741 14179 ft 343 kts 127°
2026-05-07 01:59 26.23669 -81.09721 13822 ft 341 kts 127°
2026-05-07 01:59 26.22161 -81.07741 13422 ft 338 kts 127°
2026-05-07 01:59 26.20647 -81.05750 13002 ft 336 kts 127°
2026-05-07 01:59 26.19144 -81.03773 12589 ft 333 kts 127°
2026-05-07 02:00 26.17651 -81.01809 12186 ft 331 kts 128°
2026-05-07 02:00 26.16178 -80.99873 12030 ft 324 kts 127°
2026-05-07 02:00 26.14973 -80.97837 12048 ft 311 kts 112°
2026-05-07 02:00 26.14311 -80.95581 12053 ft 305 kts 98°
2026-05-07 02:01 26.13927 -80.93259 12055 ft 304 kts 97°
2026-05-07 02:01 26.13544 -80.90937 12060 ft 304 kts 97°
2026-05-07 02:01 26.13163 -80.88622 12054 ft 304 kts 97°
2026-05-07 02:01 26.12781 -80.86309 12055 ft 304 kts 97°
2026-05-07 02:02 26.12398 -80.83997 12052 ft 304 kts 97°
2026-05-07 02:02 26.12012 -80.81689 11944 ft 302 kts 97°
2026-05-07 02:02 26.11626 -80.79398 11582 ft 301 kts 97°
2026-05-07 02:02 26.11271 -80.77113 11218 ft 299 kts 96°
2026-05-07 02:03 26.10951 -80.74829 10857 ft 298 kts 96°
2026-05-07 02:03 26.10650 -80.72585 10500 ft 296 kts 96°
2026-05-07 02:03 26.10346 -80.70296 10135 ft 295 kts 96°
2026-05-07 02:03 26.10045 -80.68046 9757 ft 293 kts 97°
2026-05-07 02:04 26.09747 -80.65840 9369 ft 292 kts 97°
2026-05-07 02:04 26.09442 -80.63617 8979 ft 290 kts 97°
2026-05-07 02:04 26.09136 -80.61404 8570 ft 289 kts 97°
2026-05-07 02:04 26.08829 -80.59206 8158 ft 287 kts 98°
2026-05-07 02:05 26.08519 -80.56983 7745 ft 286 kts 98°
2026-05-07 02:05 26.08214 -80.54805 7341 ft 284 kts 97°
2026-05-07 02:05 26.07919 -80.52667 6950 ft 282 kts 96°
2026-05-07 02:05 26.07850 -80.50501 6544 ft 280 kts 89°
2026-05-07 02:06 26.07846 -80.48336 6143 ft 279 kts 90°
2026-05-07 02:06 26.07839 -80.46183 5730 ft 278 kts 90°
2026-05-07 02:06 26.07830 -80.44044 5316 ft 276 kts 90°
2026-05-07 02:06 26.07821 -80.41912 4905 ft 274 kts 90°
2026-05-07 02:07 26.07810 -80.39802 4485 ft 272 kts 90°
2026-05-07 02:07 26.07790 -80.35620 3651 ft 269 kts 90°
2026-05-07 02:07 26.07780 -80.33545 3240 ft 267 kts 90°
2026-05-07 02:08 26.07770 -80.31509 2999 ft 257 kts 91°
2026-05-07 02:08 26.07761 -80.29580 2924 ft 242 kts 91°
2026-05-07 02:08 26.07751 -80.27754 2800 ft 231 kts 91°
2026-05-07 02:08 26.07742 -80.25987 2435 ft 232 kts 91°
2026-05-07 02:09 26.07733 -80.24187 2089 ft 232 kts 91°
2026-05-07 02:09 26.07725 -80.22411 1773 ft 226 kts 90°
2026-05-07 02:09 26.07723 -80.20679 1136 ft 225 kts 90°
2026-05-07 02:09 26.07729 -80.18950 592 ft 220 kts 91°
2026-05-07 02:10 26.07719 -80.17309 327 ft 201 kts 94°
2026-05-07 02:10 26.07677 -80.15837 368 ft 191 kts 94°
2026-05-07 02:10 26.07601 -80.14164 682 ft 245 kts 93°
2026-05-07 02:10 26.07582 -80.12165 1686 ft 256 kts 88°
2026-05-07 02:11 26.07662 -80.10154 2912 ft 255 kts 87°
2026-05-07 02:11 26.07805 -80.08342 3430 ft 221 kts 80°
2026-05-07 02:11 26.08062 -80.06674 3681 ft 217 kts 81°
2026-05-07 02:11 26.08285 -80.05013 3884 ft 218 kts 82°
2026-05-07 02:12 26.08676 -80.03388 3976 ft 219 kts 61°
2026-05-07 02:12 26.09678 -80.02148 3989 ft 217 kts 31°
2026-05-07 02:12 26.11092 -80.01617 3990 ft 216 kts
2026-05-07 02:12 26.12549 -80.01919 3993 ft 214 kts 332°
2026-05-07 02:13 26.13684 -80.02955 3992 ft 213 kts 303°
2026-05-07 02:13 26.14228 -80.04438 3993 ft 211 kts 276°
2026-05-07 02:13 26.14095 -80.06070 3992 ft 211 kts 255°
2026-05-07 02:13 26.13727 -80.07663 3993 ft 212 kts 255°
2026-05-07 02:14 26.13366 -80.09231 3992 ft 213 kts 255°
2026-05-07 02:14 26.13000 -80.10824 3992 ft 213 kts 256°
2026-05-07 02:14 26.12635 -80.12419 3992 ft 213 kts 256°
2026-05-07 02:14 26.12270 -80.14012 3988 ft 212 kts 256°
2026-05-07 02:15 26.11906 -80.15610 3989 ft 213 kts 256°
2026-05-07 02:15 26.11541 -80.17212 3990 ft 213 kts 256°
2026-05-07 02:15 26.11175 -80.18809 3987 ft 213 kts 256°
2026-05-07 02:15 26.10808 -80.20404 3992 ft 213 kts 256°
2026-05-07 02:16 26.10442 -80.21998 3989 ft 212 kts 256°
2026-05-07 02:16 26.10075 -80.23592 3991 ft 212 kts 256°
2026-05-07 02:16 26.09711 -80.25183 3992 ft 213 kts 256°
2026-05-07 02:16 26.09345 -80.26782 3989 ft 213 kts 256°
2026-05-07 02:17 26.08718 -80.28243 3992 ft 212 kts 223°
2026-05-07 02:17 26.07393 -80.28878 3991 ft 213 kts 179°
2026-05-07 02:17 26.06033 -80.28307 3992 ft 215 kts 135°
2026-05-07 02:17 26.05401 -80.26843 3992 ft 216 kts 91°
2026-05-07 02:18 26.05460 -80.25165 3988 ft 218 kts 92°
2026-05-07 02:18 26.04987 -80.23593 3987 ft 217 kts 128°
2026-05-07 02:18 26.03817 -80.22616 3991 ft 216 kts 163°
2026-05-07 02:18 26.02346 -80.22560 3992 ft 213 kts 199°
2026-05-07 02:19 26.01129 -80.23448 3992 ft 212 kts 230°
2026-05-07 02:19 26.00242 -80.24762 3992 ft 212 kts 237°
2026-05-07 02:19 25.99524 -80.26186 3986 ft 210 kts 256°
2026-05-07 02:19 25.99387 -80.27787 3774 ft 208 kts 271°
2026-05-07 02:20 25.99444 -80.29401 3460 ft 209 kts 273°
2026-05-07 02:20 25.99532 -80.31015 3180 ft 209 kts 274°
2026-05-07 02:20 25.99628 -80.32628 3008 ft 209 kts 273°
2026-05-07 02:20 25.99730 -80.34256 2995 ft 212 kts 274°
2026-05-07 02:21 25.99836 -80.35873 2996 ft 212 kts 274°
2026-05-07 02:21 25.99942 -80.37512 2991 ft 213 kts 274°
2026-05-07 02:21 26.00047 -80.39154 2992 ft 212 kts 274°
2026-05-07 02:21 26.00151 -80.40787 2995 ft 212 kts 274°
2026-05-07 02:22 26.00254 -80.42424 2989 ft 212 kts 274°
2026-05-07 02:22 26.00634 -80.43992 2987 ft 212 kts 303°
2026-05-07 02:22 26.01736 -80.45038 2998 ft 211 kts 340°
2026-05-07 02:22 26.03172 -80.45355 2998 ft 212 kts 360°
2026-05-07 02:23 26.04634 -80.45139 2992 ft 212 kts 18°
2026-05-07 02:23 26.05950 -80.44415 2991 ft 212 kts 37°
2026-05-07 02:23 26.06982 -80.43263 2991 ft 211 kts 56°
2026-05-07 02:23 26.07623 -80.41808 3002 ft 210 kts 75°
2026-05-07 02:24 26.07805 -80.40199 2995 ft 210 kts 91°
2026-05-07 02:24 26.07796 -80.38567 2989 ft 210 kts 91°
2026-05-07 02:24 26.07790 -80.36959 2991 ft 210 kts 91°
2026-05-07 02:24 26.07783 -80.35332 2992 ft 210 kts 91°
2026-05-07 02:25 26.07777 -80.33702 2879 ft 210 kts 91°
2026-05-07 02:25 26.07770 -80.32083 2656 ft 208 kts 91°
2026-05-07 02:25 26.07763 -80.30483 2404 ft 205 kts 92°
2026-05-07 02:25 26.07756 -80.28901 2139 ft 204 kts 92°
2026-05-07 02:26 26.07749 -80.27350 1876 ft 197 kts 91°
2026-05-07 02:26 26.07741 -80.25821 1629 ft 195 kts 91°
2026-05-07 02:26 26.07735 -80.24356 1376 ft 184 kts 91°
2026-05-07 02:26 26.07728 -80.22981 1168 ft 170 kts 90°
2026-05-07 02:27 26.07724 -80.22134 992 ft 159 kts 92°
2026-05-07 02:27 26.07718 -80.20979 832 ft 141 kts 91°
2026-05-07 02:27 26.07712 -80.19921 643 ft 135 kts 93°
2026-05-07 02:27 26.07707 -80.18905 482 ft 130 kts 92°
2026-05-07 02:28 26.07706 -80.17912 322 ft 125 kts 94°
2026-05-07 02:28 26.07700 -80.16932 110 ft 127 kts 93°
2026-05-07 02:28 26.07689 -80.15959 21 ft 126 kts 91°
2026-05-07 02:28 26.07686 -80.15058 16 ft 95 kts 90°
2026-05-07 02:29 26.07680 -80.14565 19 ft 29 kts 91°
2026-05-07 02:29 26.07630 -80.14397 20 ft 12 kts 122°
2026-05-07 02:29 26.07587 -80.14320 18 ft 12 kts 122°
2026-05-07 02:29 26.07544 -80.14245 17 ft 11 kts 131°
2026-05-07 02:30 26.07481 -80.14250 16 ft 9 kts 212°
2026-05-07 02:30 26.07447 -80.14273 16 ft 0 kts 212°
2026-05-07 02:31 26.07437 -80.14279 16 ft 5 kts 207°
2026-05-07 02:31 26.07408 -80.14290 16 ft 4 kts 196°
2026-05-07 02:31 26.07405 -80.14291 16 ft 0 kts 197°
2026-05-07 02:31 26.07395 -80.14294 16 ft 0 kts 196°